Data for 08/13/2017

Time Sea-Level Adjusted Pressure Absolute Pressure Temperature Relative Humidity Dew Point   
(mb) (inHg) (mb) (inHg) (C) (F) (%) (C) (F)
00:05 1017 30.03 846 24.98 21 69.8 26 1 33.8
00:10 1017 30.03 846 24.98 20.9 69.6 27 1.1 34
00:15 1017 30.03 846 24.98 20.8 69.4 27 1.1 34
00:20 1017 30.03 846 24.98 20.8 69.4 27 1 33.9
00:25 1017 30.03 846 24.98 20.9 69.7 27 1.2 34.1
00:30 1017 30.03 846 24.98 20.9 69.6 27 1.4 34.6
00:35 1017 30.03 846 24.98 20.7 69.3 27 1.2 34.2
00:40 1017 30.03 846 24.98 20.7 69.3 27 1.4 34.6
00:45 1017 30.03 846 24.98 20.5 68.9 28 1.4 34.6
00:50 1017 30.03 846 24.98 20.4 68.7 28 1.5 34.7
00:55 1017 30.03 846 24.98 20.3 68.5 28 1.4 34.6
01:00 1017 30.03 846 24.98 20.2 68.3 29 1.6 34.9
01:05 1017 30.03 846 24.98 20 67.9 29 1.5 34.7
01:10 1017 30.03 846 24.98 20 68.1 29 1.6 34.8
01:15 1017 30.03 846 24.98 20 67.9 29 1.6 34.8
01:20 1017 30.03 846 24.98 19.9 67.8 29 1.5 34.7
01:25 1017 30.03 846 24.98 19.9 67.8 29 1.6 34.8
01:30 1017 30.03 846 24.98 19.9 67.8 29 1.6 34.9
01:35 1017 30.03 846 24.98 19.8 67.7 29 1.6 34.8
01:40 1017 30.03 846 24.98 19.8 67.6 30 1.7 35.1
01:45 1017 30.03 846 24.98 19.7 67.4 30 1.7 35.1
01:50 1017 30.03 846 24.98 19.5 67.1 30 1.7 35.1
01:55 1017 30.03 846 24.98 19.3 66.8 31 1.8 35.2
02:00 1017 30.03 846 24.98 19.3 66.7 31 1.7 35.1
02:05 1016 30 846 24.98 19.3 66.7 31 1.8 35.2
02:10 1016 30 846 24.98 19.3 66.7 30 1.7 35
02:15 1016 30 846 24.98 19.5 67 30 1.7 35.1
02:20 1016 30 846 24.98 19.5 67.1 30 1.8 35.3
02:25 1016 30 846 24.98 19.3 66.8 31 1.8 35.3
02:30 1016 30 846 24.98 19.3 66.7 31 1.9 35.4
02:35 1016 30 846 24.98 19.2 66.5 31 1.8 35.3
02:40 1016 30 846 24.98 19.1 66.4 31 1.8 35.2
02:45 1016 30 846 24.98 19 66.3 32 1.9 35.5
02:50 1016 30 846 24.98 18.9 66 32 1.8 35.3
02:55 1016 30 846 24.98 19 66.2 31 1.8 35.3
03:00 1017 30.03 846 24.98 19.1 66.5 31 1.8 35.3
03:05 1017 30.03 846 24.98 19.1 66.3 31 1.9 35.4
03:10 1017 30.03 846 24.98 18.9 66 32 2 35.5
03:15 1017 30.03 846 24.98 18.8 65.9 32 1.9 35.4
03:20 1017 30.03 846 24.98 18.8 65.8 32 1.8 35.3
03:25 1017 30.03 847 25.01 18.8 65.9 33 2.3 36.2
03:30 1018 30.06 847 25.01 18.5 65.3 32 1.6 34.9
03:35 1018 30.06 847 25.01 18.7 65.6 32 1.9 35.4
03:40 1018 30.06 847 25.01 18.5 65.3 33 2 35.5
03:45 1018 30.06 847 25.01 18.4 65 33 2 35.6
03:50 1018 30.06 847 25.01 18.3 64.9 33 2 35.6
03:55 1018 30.06 847 25.01 18.3 65 33 2.1 35.8
04:00 1018 30.06 847 25.01 18.3 64.9 34 2.1 35.9
04:05 1018 30.06 847 25.01 18.3 64.9 34 2.2 35.9
04:10 1018 30.06 847 25.01 18.2 64.7 34 2.2 36
04:15 1017 30.03 846 24.98 18 64.5 36 2.9 37.2
04:20 1017 30.03 847 25.01 17.9 64.1 35 2.5 36.4
04:25 1017 30.03 847 25.01 17.8 64 37 2.9 37.2
04:30 1017 30.03 846 24.98 17.5 63.5 36 2.4 36.2
04:35 1017 30.03 846 24.98 17.4 63.3 35 2 35.7
04:40 1017 30.03 846 24.98 17.4 63.3 35 1.8 35.2
04:45 1017 30.03 846 24.98 17.6 63.6 34 1.8 35.3
04:50 1017 30.03 846 24.98 17.4 63.4 36 2.3 36.1
04:55 1017 30.03 846 24.98 17.2 63 37 2.4 36.2
05:00 1017 30.03 847 25.01 17 62.7 37 2.5 36.5
05:05 1017 30.03 847 25.01 16.9 62.5 36 2 35.6
05:10 1017 30.03 847 25.01 17.1 62.9 37 2.3 36.2
05:15 1018 30.06 847 25.01 17.2 62.9 37 2.5 36.5
05:20 1018 30.06 847 25.01 17 62.7 37 2.4 36.4
05:25 1018 30.06 847 25.01 17.1 62.7 38 2.7 36.9
05:30 1018 30.06 847 25.01 16.9 62.4 39 3 37.5
05:35 1018 30.06 847 25.01 16.8 62.3 41 3.7 38.6
05:40 1018 30.06 847 25.01 16.8 62.2 42 3.9 39.1
05:45 1018 30.06 847 25.01 16.6 61.9 44 4.5 40.2
05:50 1018 30.06 847 25.01 16.5 61.6 47 5.1 41.2
05:55 1018 30.06 847 25.01 16.5 61.7 45 4.7 40.5
06:00 1018 30.06 848 25.04 17.3 63.1 42 4.2 39.6
06:05 1018 30.06 847 25.01 17.4 63.2 49 6.8 44.2
06:10 1018 30.06 847 25.01 16.8 62.2 54 7.4 45.4
06:15 1018 30.06 847 25.01 17 62.6 51 6.9 44.4
06:20 1018 30.06 847 25.01 17 62.7 52 7.2 44.9
06:25 1018 30.06 847 25.01 17 62.6 52 7.2 45
06:30 1018 30.06 847 25.01 16.9 62.4 51 6.8 44.2
06:35 1017 30.03 847 25.01 17 62.6 45 5.2 41.3
06:40 1017 30.03 847 25.01 17.8 64.1 45 5.7 42.3
06:45 1017 30.03 846 24.98 18.1 64.6 43 5.5 41.8
06:50 1017 30.03 846 24.98 18 64.4 44 5.7 42.2
06:55 1017 30.03 846 24.98 17.9 64.3 44 5.7 42.3
07:00 1017 30.03 846 24.98 18.1 64.6 43 5.5 41.9
07:05 1017 30.03 846 24.98 18.1 64.6 44 5.8 42.5
07:10 1017 30.03 846 24.98 17.9 64.3 44 5.7 42.3
07:15 1017 30.03 846 24.98 17.9 64.2 44 5.7 42.2
07:20 1017 30.03 846 24.98 17.8 64.1 45 5.9 42.6
07:25 1017 30.03 846 24.98 17.7 63.9 45 5.8 42.4
07:30 1017 30.03 846 24.98 17.7 63.9 45 5.7 42.2
07:35 1017 30.03 846 24.98 17.8 64 44 5.6 42.1
07:40 1017 30.03 846 24.98 17.8 64.1 44 5.5 41.9
07:45 1017 30.03 846 24.98 17.8 64 45 5.7 42.2
07:50 1017 30.03 846 24.98 17.7 63.9 44 5.6 42
07:55 1017 30.03 846 24.98 17.7 63.9 44 5.5 41.9
08:00 1017 30.03 846 24.98 17.7 63.9 45 5.9 42.5
08:05 1017 30.03 846 24.98 17.7 63.9 46 6.1 43
08:10 1017 30.03 846 24.98 17.7 63.8 46 6 42.7
08:15 1017 30.03 846 24.98 18 64.3 45 6.1 43
08:20 1017 30.03 846 24.98 18.2 64.7 43 5.6 42.1
08:25 1017 30.03 846 24.98 18.5 65.2 44 6 42.8
08:30 1017 30.03 846 24.98 18.4 65.2 46 6.7 44
08:35 1017 30.03 846 24.98 18.2 64.7 46 6.6 43.9
08:40 1017 30.03 846 24.98 18.2 64.7 45 6.1 43.1
08:45 1017 30.03 846 24.98 18.4 65.2 45 6.5 43.7
08:50 1016 30 846 24.98 18.4 65.1 45 6.3 43.4
08:55 1016 30 846 24.98 18.5 65.4 45 6.4 43.5
09:00 1016 30 846 24.98 18.6 65.4 44 6.2 43.2
09:05 1016 30 846 24.98 18.5 65.4 45 6.4 43.5
09:10 1016 30 846 24.98 18.7 65.6 44 6.2 43.1
09:15 1016 30 846 24.98 18.8 65.9 43 6 42.7
09:20 1016 30 846 24.98 19.2 66.5 42 6.1 43
09:25 1016 30 846 24.98 19.7 67.4 40 5.7 42.3
09:30 1016 30 846 24.98 20.2 68.4 40 6.5 43.6
09:35 1017 30.03 846 24.98 20.3 68.5 43 7.4 45.3
09:40 1017 30.03 846 24.98 21 69.7 38 6.2 43.2
09:45 1017 30.03 846 24.98 21.2 70.1 35 5.1 41.1
09:50 1017 30.03 846 24.98 21.5 70.8 35 5.6 42.2
09:55 1017 30.03 846 24.98 21.6 70.8 34 5.2 41.3
10:00 1017 30.03 846 24.98 22 71.5 33 5 41
10:05 1017 30.03 846 24.98 22.3 72.1 35 6.4 43.5
10:10 1016 30 846 24.98 22.3 72.1 35 6.5 43.6
10:15 1016 30 846 24.98 21.9 71.4 33 5.2 41.3
10:20 1016 30 846 24.98 22.1 71.7 34 5.9 42.6
10:25 1016 30 846 24.98 22.3 72.1 32 5.1 41.2
10:30 1016 30 846 24.98 22.7 72.9 31 5.1 41.2
10:35 1016 30 846 24.98 22.8 73.1 31 5 41
10:40 1016 30 846 24.98 22.9 73.1 32 5.5 41.9
10:45 1016 30 846 24.98 23.1 73.6 34 6.5 43.6
10:50 1016 30 846 24.98 23.1 73.5 34 6.7 44.1
10:55 1016 30 846 24.98 22.9 73.2 29 4.2 39.6
11:00 1016 30 846 24.98 22.9 73.2 29 4 39.1
11:05 1016 30 845 24.95 23.2 73.7 27 3.5 38.4
11:10 1016 30 845 24.95 23.3 73.9 30 4.9 40.8
11:15 1016 30 845 24.95 23.3 73.9 29 4.4 39.9
11:20 1016 30 845 24.95 24.1 75.4 26 3.7 38.7
11:25 1016 30 845 24.95 24.3 75.7 27 4.4 39.9
11:30 1016 30 845 24.95 24.3 75.7 25 3.3 38
11:35 1016 30 845 24.95 24.4 75.9 24 3 37.4
11:40 1016 30 845 24.95 24.3 75.8 25 3.5 38.2
11:45 1016 30 845 24.95 24.4 76 24 2.8 37.1
11:50 1016 30 845 24.95 24.9 76.9 23 2.8 37.1
11:55 1016 30 845 24.95 24.8 76.6 24 2.9 37.3
12:00 1016 30 845 24.95 24.4 76 24 2.7 36.8
12:05 1016 30 845 24.95 24.3 75.8 24 2.8 37.1
12:10 1016 30 845 24.95 24.2 75.5 24 2.6 36.7
12:15 1016 30 845 24.95 24.1 75.3 25 3.3 37.9
12:20 1016 30 845 24.95 24.1 75.4 25 3 37.4
12:25 1016 30 845 24.95 24.4 75.9 25 3.2 37.7
12:30 1015 29.97 845 24.95 24.6 76.2 24 2.7 36.9
12:35 1015 29.97 845 24.95 24.8 76.6 24 3.2 37.8
12:40 1015 29.97 845 24.95 25 77 24 3.5 38.2
12:45 1015 29.97 845 24.95 25 76.9 24 3.4 38
12:50 1015 29.97 844 24.92 25.3 77.5 24 3.2 37.8
12:55 1015 29.97 844 24.92 26.1 79 23 3.3 38
13:00 1015 29.97 844 24.92 26 78.7 23 3.7 38.7
13:05 1015 29.97 844 24.92 26.6 79.8 23 3.7 38.7
13:10 1015 29.97 844 24.92 26.9 80.5 21 3.2 37.7
13:15 1015 29.97 844 24.92 26.8 80.3 22 3.7 38.6
13:20 1015 29.97 844 24.92 26.8 80.2 23 4.2 39.5
13:25 1015 29.97 844 24.92 25.7 78.3 23 3.6 38.5
13:30 1015 29.97 844 24.92 26.3 79.4 24 4.1 39.5
13:35 1015 29.97 844 24.92 26 78.8 24 4 39.1
13:40 1015 29.97 844 24.92 25.7 78.3 24 3.9 39.1
13:45 1015 29.97 844 24.92 25.6 78 24 3.7 38.7
13:50 1015 29.97 844 24.92 26.2 79.2 23 3.8 38.8
13:55 1015 29.97 844 24.92 26.4 79.5 24 4.3 39.8
14:00 1015 29.97 844 24.92 26.9 80.4 23 4.5 40
14:05 1015 29.97 844 24.92 26.9 80.4 22 3.4 38.2
14:10 1015 29.97 844 24.92 27.4 81.2 21 3.6 38.4
14:15 1015 29.97 844 24.92 27.4 81.3 22 4.4 39.8
14:20 1015 29.97 844 24.92 27.2 81 24 5.1 41.1
14:25 1014 29.94 844 24.92 27.7 81.9 21 3.5 38.4
14:30 1014 29.94 843 24.89 28 82.3 21 3.9 38.9
14:35 1014 29.94 843 24.89 27.4 81.3 22 3.8 38.8
14:40 1014 29.94 843 24.89 26.7 80 22 3.8 38.8
14:45 1014 29.94 843 24.89 26.7 80 22 3.8 38.8
14:50 1014 29.94 843 24.89 27.1 80.8 21 3.5 38.3
14:55 1014 29.94 843 24.89 26.9 80.5 21 3.3 37.9
15:00 1014 29.94 843 24.89 27.2 81 22 3.9 39
15:05 1014 29.94 843 24.89 26.6 79.9 23 4.1 39.4
15:10 1014 29.94 843 24.89 26.4 79.5 23 3.7 38.7
15:15 1014 29.94 843 24.89 26.3 79.3 23 3.9 39
15:20 1014 29.94 843 24.89 26.3 79.3 23 3.6 38.5
15:25 1014 29.94 843 24.89 26.6 79.9 23 4 39.3
15:30 1014 29.94 843 24.89 26.5 79.7 24 4.4 39.9
15:35 1014 29.94 843 24.89 26.4 79.5 26 5.6 42.1
15:40 1014 29.94 843 24.89 24.9 76.8 33 7.9 46.1
15:45 1014 29.94 843 24.89 22.3 72.2 43 9.4 48.9
15:50 1014 29.94 844 24.92 21.2 70.2 48 10.1 50.1
15:55 1015 29.97 844 24.92 21.1 70 40 7.3 45.1
16:00 1015 29.97 844 24.92 21.6 70.8 39 7.3 45.1
16:05 1015 29.97 844 24.92 21.8 71.3 42 8.4 47.2
16:10 1015 29.97 844 24.92 22.3 72.1 39 7.7 45.9
16:15 1015 29.97 844 24.92 22.8 73 37 7.4 45.3
16:20 1016 30 845 24.95 22.6 72.7 38 7.8 46.1
16:25 1016 30 845 24.95 21.7 71.1 41 8.1 46.6
16:30 1016 30 846 24.98 20.9 69.7 44 8.5 47.3
16:35 1017 30.03 846 24.98 20.5 68.9 46 8.8 47.8
16:40 1017 30.03 846 24.98 20.3 68.6 48 9.1 48.3
16:45 1017 30.03 846 24.98 20 68.1 49 9.2 48.5
16:50 1017 30.03 846 24.98 19.7 67.5 52 9.7 49.4
16:55 1017 30.03 846 24.98 19.5 67.2 52 9.6 49.2
17:00 1017 30.03 846 24.98 19.5 67.1 51 9.3 48.7
17:05 1017 30.03 846 24.98 19.5 67.2 51 9.3 48.8
17:10 1017 30.03 846 24.98 19.6 67.3 53 10 50
17:15 1017 30.03 846 24.98 19.7 67.4 49 8.9 47.9
17:20 1017 30.03 846 24.98 19.6 67.4 49 8.8 47.8
17:25 1017 30.03 846 24.98 19.8 67.6 47 8.3 46.9
17:30 1017 30.03 846 24.98 20 68 48 8.8 47.9
17:35 1017 30.03 846 24.98 20.1 68.1 46 8.3 47
17:40 1017 30.03 846 24.98 20 68 46 8.1 46.6
17:45 1017 30.03 846 24.98 20.1 68.2 46 8.2 46.8
17:50 1017 30.03 846 24.98 20.4 68.6 45 8.1 46.6
17:55 1017 30.03 846 24.98 20.3 68.5 45 8.1 46.6
18:00 1017 30.03 846 24.98 20.3 68.5 45 8.2 46.7
18:05 1017 30.03 846 24.98 20.3 68.5 48 9.1 48.4
18:10 1017 30.03 846 24.98 19.8 67.6 48 8.7 47.7
18:15 1017 30.03 846 24.98 19.3 66.7 51 9 48.2
18:20 1017 30.03 846 24.98 19.1 66.4 51 8.8 47.9
18:25 1017 30.03 846 24.98 19.1 66.4 51 9 48.1
18:30 1017 30.03 846 24.98 19.2 66.6 51 9 48.2
18:35 1017 30.03 846 24.98 19.2 66.5 52 9.3 48.7
18:40 1017 30.03 846 24.98 19.2 66.5 52 9.2 48.5
18:45 1017 30.03 846 24.98 19.2 66.5 51 8.9 48
18:50 1016 30 846 24.98 19.2 66.5 50 8.7 47.7
18:55 1016 30 846 24.98 19.3 66.7 50 8.6 47.5
19:00 1016 30 845 24.95 19.6 67.2 48 8.4 47.1
19:05 1016 30 845 24.95 19.7 67.5 49 8.7 47.6
19:10 1016 30 846 24.98 19.6 67.2 48 8.4 47.1
19:15 1016 30 846 24.98 19.4 66.9 49 8.4 47.2
19:20 1016 30 846 24.98 19.2 66.6 48 8 46.4
19:25 1016 30 845 24.95 19.3 66.7 50 8.6 47.5
19:30 1016 30 845 24.95 19.2 66.5 51 8.8 47.8
19:35 1016 30 845 24.95 19.1 66.4 51 8.8 47.8
19:40 1016 30 845 24.95 19 66.3 52 9.1 48.4
19:45 1016 30 845 24.95 18.9 66 53 9.2 48.5
19:50 1016 30 845 24.95 18.9 65.9 53 9.1 48.5
19:55 1016 30 845 24.95 18.8 65.9 52 9 48.2
20:00 1016 30 845 24.95 18.9 65.9 52 9 48.3
20:05 1016 30 845 24.95 18.8 65.9 52 9 48.1
20:10 1016 30 846 24.98 18.8 65.9 52 8.9 48
20:15 1016 30 846 24.98 18.8 65.9 50 8.3 46.9
20:20 1016 30 846 24.98 18.9 66 51 8.5 47.3
20:25 1016 30 846 24.98 18.9 66 50 8.4 47.1
20:30 1016 30 846 24.98 18.8 65.9 50 8.3 46.9
20:35 1016 30 846 24.98 18.9 66 50 8.4 47.1
20:40 1016 30 846 24.98 19 66.1 50 8.5 47.2
20:45 1016 30 846 24.98 18.9 66 57 10.3 50.5
20:50 1016 30 846 24.98 18.3 64.9 61 10.7 51.3
20:55 1016 30 846 24.98 17.8 64 60 10 50
21:00 1016 30 846 24.98 17.7 63.8 60 9.9 49.9
21:05 1016 30 846 24.98 17.6 63.6 60 9.7 49.5
21:10 1016 30 846 24.98 17.6 63.6 60 9.8 49.7
21:15 1016 30 846 24.98 17.5 63.4 60 9.8 49.7
21:20 1016 30 846 24.98 17.4 63.3 61 9.9 49.9
21:25 1017 30.03 846 24.98 17.2 62.9 60 9.4 49
21:30 1017 30.03 846 24.98 17.2 63 61 9.7 49.5
21:35 1017 30.03 846 24.98 17.1 62.8 61 9.7 49.4
21:40 1017 30.03 846 24.98 17.2 62.9 60 9.5 49.1
21:45 1017 30.03 846 24.98 17.1 62.8 60 9.4 48.9
21:50 1017 30.03 846 24.98 17.1 62.8 60 9.4 49
21:55 1017 30.03 846 24.98 17.1 62.8 60 9.3 48.8
22:00 1017 30.03 846 24.98 17.2 62.9 59 9.2 48.5
22:05 1017 30.03 846 24.98 17.1 62.7 60 9.4 49
22:10 1017 30.03 846 24.98 17.1 62.7 59 9.2 48.6
22:15 1017 30.03 846 24.98 17.1 62.7 61 9.5 49.1
22:20 1017 30.03 846 24.98 16.9 62.5 61 9.5 49
22:25 1017 30.03 846 24.98 16.9 62.4 61 9.4 48.9
22:30 1017 30.03 846 24.98 17 62.5 61 9.5 49
22:35 1017 30.03 846 24.98 17 62.5 61 9.5 49.1
22:40 1017 30.03 846 24.98 17 62.5 61 9.6 49.2
22:45 1017 30.03 846 24.98 16.9 62.5 61 9.5 49.1
22:50 1017 30.03 846 24.98 16.9 62.4 60 9.2 48.6
22:55 1017 30.03 846 24.98 16.9 62.5 60 9.2 48.6
23:00 1017 30.03 846 24.98 17 62.6 59 9.1 48.3
23:05 1017 30.03 846 24.98 17.1 62.8 59 9.1 48.5
23:10 1017 30.03 846 24.98 17.1 62.8 59 9.1 48.4
23:15 1017 30.03 846 24.98 17.2 62.9 59 9.2 48.6
23:20 1017 30.03 846 24.98 17.2 62.9 59 9.2 48.6
23:25 1017 30.03 846 24.98 17.1 62.7 59 9.2 48.5
23:30 1017 30.03 846 24.98 17 62.5 60 9.1 48.4
23:35 1017 30.03 846 24.98 16.8 62.3 60 9.1 48.4
23:40 1017 30.03 846 24.98 16.7 62.1 61 9.2 48.6
23:45 1017 30.03 846 24.98 16.6 61.9 62 9.3 48.8
23:50 1017 30.03 846 24.98 16.5 61.6 62 9.3 48.7
23:55 1017 30.03 846 24.98 16.2 61.2 65 9.7 49.5
24:00 1017 30.03 846 24.98 15.9 60.7 66 9.6 49.3